Tracking 17938 objects as of 23-February-2017
HD Live streaming from Space Station
objects crossing your sky now

ECHOSTAR 1

Track ECHOSTAR 1 now!
ECHOSTAR 1 is classified as:


NORAD ID: 23754
Int'l Code: 1995-073A
Perigee: 35,855.4 km
Apogee: 35,884.8 km
Inclination: 0.6 °
Period: 1,440.0 minutes
Semi major axis: 42241 km
RCS: 30.9641 m2 (large)
Launch date: December 28, 1995
Source: United States (US)
Launch site: Xichang Space Center, China (XSC)

Western United States to Central/Mountain region; 16 Ku-band transponders
Your satellite tracking list
Your tracking list is empty





NASA's NSSDC Master Catalog

Two Line Element Set (TLE):
1 23754U 95073A   17053.13466288 -.00000250  00000-0  00000+0 0  9996
2 23754   0.5703  90.9260 0003481 279.5027 113.0098  1.00272657 77334
Source of the keplerian elements: AFSPC